Claxton, GA

6:26 PM EST on February 09, 2016 (GMT -0500)
Claxton-Evans County

Weather History for KCWV - January, 2013

Change the Weather History Date:

Thursday, January 31, 2013

  Actual Average (KSAV) Record (KSAV)
Temperature  
Mean Temperature 46 °F 51 °F  
Max Temperature 57 °F 62 °F 83 °F (1957)
Min Temperature 35 °F 40 °F 16 °F (1966)
Degree Days  
Heating Degree Days 19 15  
Month to date heating degree days 486  
Since 1 July heating degree days 1174  
Moisture  
Dew Point 34 °F    
Average Humidity 61    
Maximum Humidity 100    
Minimum Humidity 31    
Precipitation  
Precipitation 0.00 in 0.13 in 1.56 in (1885)
Month to date precipitation 3.69  
Year to date precipitation 3.69  
Sea Level Pressure  
Sea Level Pressure 30.06 in    
Wind  
Wind Speed 11 mph (West)    
Max Wind Speed 22 mph    
Max Gust Speed 31 mph    
Visibility 10 miles    
Events      
T = Trace of Precipitation, MM = Missing Value Source: NWS Daily Summary

Daily Weather History Graph

Daily Weather History Graph

Search for Another Location

Airport or City:

Trip Planner

Search our weather history database for the weather conditions in past years. The results will help you decide how hot, cold, wet, or windy it might be!

Date:

Astronomy

Jan. 31, 2013 Rise Set
Actual Time 7:21 AM EST 6:00 PM EST
Civil Twilight 6:56 AM EST 6:26 PM EST
Nautical Twilight 6:26 AM EST 6:55 PM EST
Astronomical Twilight 5:57 AM EST 7:24 PM EST
Moon 10:39 PM EST (1/31) 9:40 AM EST (1/31)
Length of Visible Light 11h 30m
Length of Day
10h 38m
Waning Gibbous, 80% of the Moon is Illuminated
Jan 31
Waning Gibbous
Feb 3
Last Quarter
Feb 10
New
Feb 17
First Quarter
Feb 25
Full

Hourly Weather History & Observations

Time (EST) Temp. Windchill Dew Point Humidity Pressure Visibility Wind Dir Wind Speed Gust Speed Precip Events Conditions
12:15 AM 55.4 °F - 55.4 °F 100% 29.81 in 10.0 mi WSW 5.8 mph - N/A   Overcast
12:35 AM 55.4 °F - 53.6 °F 94% 29.82 in 10.0 mi WSW 9.2 mph - N/A   Overcast
12:55 AM 55.4 °F - 51.8 °F 88% 29.82 in 10.0 mi WSW 10.4 mph 16.1 mph N/A   Overcast
1:15 AM 53.6 °F - 50.0 °F 88% 29.82 in 10.0 mi WSW 9.2 mph - N/A   Overcast
1:35 AM 53.6 °F - 50.0 °F 88% 29.84 in 10.0 mi West 11.5 mph 17.3 mph N/A   Overcast
1:55 AM 53.6 °F - 50.0 °F 88% 29.85 in 10.0 mi West 11.5 mph 19.6 mph N/A   Overcast
2:15 AM 53.6 °F - 48.2 °F 82% 29.85 in 10.0 mi West 13.8 mph 25.3 mph N/A   Mostly Cloudy
2:35 AM 53.6 °F - 44.6 °F 72% 29.86 in 10.0 mi West 16.1 mph 28.8 mph N/A   Mostly Cloudy
2:55 AM 53.6 °F - 42.8 °F 67% 29.88 in 10.0 mi West 12.7 mph 29.9 mph N/A   Scattered Clouds
3:15 AM 51.8 °F - 41.0 °F 67% 29.89 in 10.0 mi WNW 20.7 mph 31.1 mph N/A   Scattered Clouds
3:35 AM 51.8 °F - 41.0 °F 67% 29.91 in 10.0 mi West 19.6 mph 24.2 mph N/A   Mostly Cloudy
3:55 AM 51.8 °F - 39.2 °F 62% 29.92 in 10.0 mi West 21.9 mph 29.9 mph N/A   Overcast
4:15 AM 50.0 °F - 35.6 °F 58% 29.93 in 10.0 mi West 21.9 mph 31.1 mph N/A   Scattered Clouds
4:35 AM 50.0 °F - 35.6 °F 58% 29.95 in 10.0 mi West 20.7 mph 28.8 mph N/A   Clear
4:55 AM 48.2 °F - 35.6 °F 62% 29.95 in 10.0 mi West 12.7 mph 18.4 mph N/A   Clear
5:15 AM 46.4 °F 38.7 °F 33.8 °F 62% 29.96 in 10.0 mi West 20.7 mph 29.9 mph N/A   Clear
5:35 AM 46.4 °F 39.5 °F 33.8 °F 62% 29.97 in 10.0 mi West 17.3 mph 21.9 mph N/A   Clear
5:55 AM 46.4 °F 41.1 °F 33.8 °F 62% 29.98 in 10.0 mi West 11.5 mph 21.9 mph N/A   Clear
6:15 AM 44.6 °F 38.4 °F 32.0 °F 61% 30.00 in 10.0 mi West 12.7 mph 24.2 mph N/A   Clear
6:35 AM 44.6 °F 38.8 °F 32.0 °F 61% 30.00 in 10.0 mi West 11.5 mph 20.7 mph N/A   Clear
6:55 AM 44.6 °F 38.8 °F 32.0 °F 61% 30.02 in 10.0 mi West 11.5 mph 20.7 mph N/A   Clear
7:15 AM 44.6 °F 37.8 °F 32.0 °F 61% 30.02 in 10.0 mi West 15.0 mph 19.6 mph N/A   Clear
7:35 AM 42.8 °F 36.2 °F 32.0 °F 66% 30.03 in 10.0 mi West 12.7 mph 18.4 mph N/A   Clear
7:55 AM 42.8 °F 36.6 °F 32.0 °F 66% 30.05 in 10.0 mi West 11.5 mph 16.1 mph N/A   Clear
8:15 AM 42.8 °F 35.8 °F 32.0 °F 66% 30.06 in 10.0 mi WNW 13.8 mph 20.7 mph N/A   Clear
8:35 AM 44.6 °F 37.2 °F 32.0 °F 61% 30.07 in 10.0 mi WNW 17.3 mph 25.3 mph N/A   Clear
8:55 AM 44.6 °F 37.2 °F 32.0 °F 61% 30.08 in 10.0 mi WNW 17.3 mph 23.0 mph N/A   Clear
9:15 AM 44.6 °F 38.4 °F 32.0 °F 61% 30.08 in 10.0 mi WNW 12.7 mph 26.5 mph N/A   Clear
9:35 AM 44.6 °F 37.8 °F 32.0 °F 61% 30.09 in 10.0 mi WNW 15.0 mph 21.9 mph N/A   Clear
9:55 AM 46.4 °F 40.7 °F 32.0 °F 57% 30.10 in 10.0 mi NW 12.7 mph 19.6 mph N/A   Clear
10:15 AM 46.4 °F 41.9 °F 32.0 °F 57% 30.10 in 10.0 mi WNW 9.2 mph - N/A   Clear
10:35 AM 48.2 °F - 32.0 °F 54% 30.11 in 10.0 mi West 11.5 mph 16.1 mph N/A   Clear
10:55 AM 50.0 °F - 30.2 °F 47% 30.12 in 10.0 mi West 12.7 mph 19.6 mph N/A   Clear
11:15 AM 50.0 °F - 32.0 °F 50% 30.12 in 10.0 mi West 10.4 mph 18.4 mph N/A   Clear
11:35 AM 51.8 °F - 30.2 °F 44% 30.12 in 10.0 mi West 15.0 mph 23.0 mph N/A   Clear
11:55 AM 51.8 °F - 30.2 °F 44% 30.12 in 10.0 mi West 11.5 mph 19.6 mph N/A   Clear
12:15 PM 51.8 °F - 30.2 °F 44% 30.11 in 10.0 mi West 11.5 mph 19.6 mph N/A   Clear
12:35 PM 51.8 °F - 28.4 °F 41% 30.11 in 10.0 mi West 9.2 mph 17.3 mph N/A   Clear
12:55 PM 53.6 °F - 30.2 °F 41% 30.11 in 10.0 mi WNW 15.0 mph 20.7 mph N/A   Clear
1:15 PM 53.6 °F - 28.4 °F 38% 30.11 in 10.0 mi West 10.4 mph 23.0 mph N/A   Clear
1:35 PM 55.4 °F - 28.4 °F 36% 30.10 in 10.0 mi WNW 15.0 mph 20.7 mph N/A   Clear
1:55 PM 55.4 °F - 28.4 °F 36% 30.09 in 10.0 mi WNW 13.8 mph 18.4 mph N/A   Clear
2:15 PM 55.4 °F - 28.4 °F 36% 30.09 in 10.0 mi West 12.7 mph 23.0 mph N/A   Clear
2:35 PM 55.4 °F - 26.6 °F 33% 30.09 in 10.0 mi WNW 15.0 mph 24.2 mph N/A   Clear
2:55 PM 55.4 °F - 26.6 °F 33% 30.09 in 10.0 mi West 20.7 mph 29.9 mph N/A   Clear
3:15 PM 57.2 °F - 26.6 °F 31% 30.09 in 10.0 mi WNW 18.4 mph 26.5 mph N/A   Clear
3:35 PM 57.2 °F - 26.6 °F 31% 30.10 in 10.0 mi West 15.0 mph 23.0 mph N/A   Clear
3:55 PM 57.2 °F - 28.4 °F 33% 30.10 in 10.0 mi West 19.6 mph 26.5 mph N/A   Clear
4:15 PM 57.2 °F - 28.4 °F 33% 30.11 in 10.0 mi West 10.4 mph 19.6 mph N/A   Clear
4:35 PM 57.2 °F - 26.6 °F 31% 30.11 in 10.0 mi West 17.3 mph 25.3 mph N/A   Clear
4:55 PM 55.4 °F - 28.4 °F 36% 30.11 in 10.0 mi WNW 13.8 mph 19.6 mph N/A   Clear
5:15 PM 55.4 °F - 26.6 °F 33% 30.12 in 10.0 mi WNW 13.8 mph 20.7 mph N/A   Clear
5:35 PM 55.4 °F - 26.6 °F 33% 30.12 in 10.0 mi WNW 12.7 mph 17.3 mph N/A   Clear
5:55 PM 53.6 °F - 26.6 °F 35% 30.13 in 10.0 mi WNW 9.2 mph - N/A   Clear
6:15 PM 51.8 °F - 26.6 °F 38% 30.14 in 10.0 mi West 5.8 mph - N/A   Clear
6:35 PM 50.0 °F - 30.2 °F 47% 30.14 in 10.0 mi Calm Calm - N/A   Clear
6:55 PM 44.6 °F - 32.0 °F 61% 30.15 in 10.0 mi Calm Calm - N/A   Clear
7:15 PM 44.6 °F - 32.0 °F 61% 30.15 in 10.0 mi Calm Calm - N/A   Clear
7:35 PM 42.8 °F - 33.8 °F 70% 30.16 in 10.0 mi Calm Calm - N/A   Clear
7:55 PM 41.0 °F - 33.8 °F 76% 30.17 in 10.0 mi Calm Calm - N/A   Clear
8:15 PM 39.2 °F - 33.8 °F 81% 30.18 in 10.0 mi Calm Calm - N/A   Clear
8:35 PM 37.4 °F - 33.8 °F 87% 30.18 in 10.0 mi Calm Calm - N/A   Clear
8:55 PM 37.4 °F - 33.8 °F 87% 30.19 in 10.0 mi Calm Calm - N/A   Clear
9:15 PM 37.4 °F - 33.8 °F 87% 30.20 in 10.0 mi Calm Calm - N/A   Clear
9:35 PM 37.4 °F - 33.8 °F 87% 30.21 in 10.0 mi Calm Calm - N/A   Clear
9:55 PM 37.4 °F - 33.8 °F 87% 30.21 in 10.0 mi Calm Calm - N/A   Clear
10:15 PM 35.6 °F - 33.8 °F 93% 30.22 in 10.0 mi Calm Calm - N/A   Clear
10:35 PM 35.6 °F - 33.8 °F 93% 30.23 in 10.0 mi Calm Calm - N/A   Clear
10:55 PM 35.6 °F - 33.8 °F 93% 30.23 in 10.0 mi Calm Calm - N/A   Clear
11:15 PM 35.6 °F - 33.8 °F 93% 30.23 in 10.0 mi Calm Calm - N/A   Clear
11:35 PM 35.6 °F - 33.8 °F 93% 30.23 in 10.0 mi Calm Calm - N/A   Clear